CZ-6A DEB, 61110

Orbit data source: Space-Track

CZ-6A DEB, 61110 is space debris in LEO originally from a launch on Tue, 06 Aug 2024 UTC launched from the Taiyaun Space Center, China (TSC). Debris objects in space refer to the collection of defunct objects orbiting the Earth. Examples of debris include non-operational satellites, rocket bodies, and fragments generated from explosions, collisions, or faulty payload assembly.

Loading next visibility...
Identifier
61110, 2024-140PC
Orbit
LEO
Country
Flag of CNCN / PRC
Related business
Manufacturer
SAST
Mission
Spacecraft
Bus & Motor
Unknown
Mass
Unknown
Launch date (UTC)
2024-08-06 (2 years ago)
Launch vehicle
Unknown
Launch site
Taiyaun Space Center, China (TSC)
Object type
Payload
Rocket body
Debris
Shape & HBR
Unknown shape, 0.2 m
Radar Cross Section
Medium (>0.1 m² and <1 m²)

Expand to show TLE details & history
Last TLE update: 15 hours ago

TLE from 15 hours ago
0 CZ-6A DEB
1 61110U 24140PC  26171.35023128  .00000644  00000-0  34799-3 0  9990
2 61110  89.0414 279.1680 0117091 245.4400 113.4544 14.08185936 92062
Epoch: 2026-06-20T08:24Z
TLE epoch observation values (Epoch: 2026-06-20T08:24:19.982Z)
Latitude
-0.00004°
Longitude
-115.48138°
Altitude
903.218 km
Speed
7.383 km/s
True Right ascension
18h 36m 40s
True Declination
0° 00' 00"
Sunlit
Object was in full shadow at epoch
Visualization orbit readout
Latitude
Unknown
Longitude
Unknown
Altitude
Unknown
Speed
Unknown
Apparent Right ascension
Unknown
Apparent Declination
Unknown
Sunlit
N/A
Visualization observer readout
Local Sidereal Time
10:20:28
Azimuth
Unknown
Elevation
Unknown
Doppler factor
Unknown
Orbital elements
Apogee altitude
947.335 km
Perigee altitude
777.771 km
Semi-major axis
7,240.69 km
Eccentricity
0.01171
Inclination
89.0414°
RAAN
279.168°
Arg. of periapsis
245.44°
True anomaly
114.67808°
Mean anomaly
113.4544°
Eccentric anomaly
114.06696°
Mean motion
3.52268 °/min
Orbital period
102.19 mins
BSTAR
0.00034799
Loading maneuver chart data...
Computing Atmospheric mass density...
Loading historical data...
Loading historical data...
Loading historical data...
Loading historical data...
Loading historical data...
Loading historical data...
Loading historical data...

Documentation

Showing up to 5 results
|